Date,TemperatureHighF,TemperatureAvgF,TemperatureLowF,DewpointHighF,DewpointAvgF,DewpointLowF,HumidityHigh,HumidityAvg,HumidityLow,PressureMaxIn,PressureMinIn,WindSpeedMaxMPH,WindSpeedAvgMPH,GustSpeedMaxMPH,PrecipitationSumIn
2013-7-1,75,67,61,64,60,55,92,79,65,29.96,29.87,11,6,19,0.11
2013-7-2,66,62,60,62,59,56,95,89,77,30.00,29.93,7,4,14,0.13
2013-7-3,72,65,62,65,62,60,97,91,74,30.06,29.97,7,2,10,0.01
2013-7-4,77,68,59,65,61,57,95,80,60,30.09,30.01,7,2,12,0.00
2013-7-5,81,71,62,69,66,60,98,84,64,30.07,29.99,7,2,12,0.00
2013-7-6,76,70,67,71,68,66,97,92,79,30.03,29.96,7,2,12,0.00
2013-7-7,84,74,64,74,69,63,98,85,69,30.02,29.94,9,5,15,0.01
2013-7-8,86,76,71,75,72,69,93,86,67,30.04,29.93,11,6,19,0.01
2013-7-9,89,80,74,78,75,71,92,84,66,29.98,29.85,7,4,12,0.02
2013-7-10,83,75,66,77,69,-100,94,85,68,29.94,29.78,14,6,21,0.66
2013-7-11,78,68,59,65,61,56,95,78,54,30.03,29.94,7,3,13,0.18
2013-7-12,82,67,52,65,59,50,95,77,49,30.10,30.02,3,0,7,0.00
2013-7-13,82,71,58,68,63,56,95,78,57,30.10,30.03,2,0,7,0.00
2013-7-14,89,76,63,76,70,61,95,80,59,30.14,30.06,5,1,10,0.00
2013-7-15,86,78,70,77,73,68,97,84,66,30.22,30.13,8,2,13,0.00
2013-7-16,90,80,70,76,72,68,95,78,55,30.28,30.21,5,1,9,0.00
2013-7-17,91,81,70,79,73,68,95,78,55,30.29,30.14,4,0,8,0.00
2013-7-18,91,82,72,79,75,70,96,82,61,30.15,29.96,6,2,10,0.00
2013-7-19,91,80,74,78,74,72,94,84,63,29.96,29.78,10,4,16,0.00
2013-7-20,85,76,69,76,71,-100,96,85,61,29.88,29.77,7,2,13,0.20
2013-7-21,77,72,66,73,69,65,98,92,82,29.91,29.81,6,2,10,0.01
2013-7-22,84,74,67,73,70,66,97,86,65,29.83,29.73,5,1,11,0.22
2013-7-23,81,73,61,73,67,57,96,83,63,29.90,29.70,13,5,20,0.05
2013-7-24,73,63,52,60,54,50,93,75,51,30.01,29.89,6,2,11,0.01
2013-7-25,78,62,49,60,54,47,96,77,45,30.09,30.01,4,0,6,0.00
2013-7-29,76,69,61,60,57,56,88,69,50,30.13,30.09,0,0,5,0.02
2013-7-30,69,66,60,67,62,55,96,89,80,30.14,30.02,5,1,10,0.20
2013-7-31,74,69,63,71,67,62,98,95,87,30.02,29.92,7,2,13,0.01